This is the latest recevied weather packets stored in our database for station/object SQ9PDE-13. If no packets are shown the sender has not sent any weather packets the latest 10 day(s).
| Time | Temp. | Humidity | Pressure | Rain* | Wind** | Luminosity | Snow |
|---|---|---|---|---|---|---|---|
| 1787698700 | 14.44° C | 80% | 1022.2 hPa | - | - | - | - |
| 1787698399 | 14.44° C | 79% | 1022.2 hPa | - | - | - | - |
| 1787698099 | 13.89° C | 81% | 1022.3 hPa | - | - | - | - |
| 1787697901 | 14.44° C | 80% | 1022.1 hPa | - | - | - | - |
| 1787697798 | 14.44° C | 80% | 1022.1 hPa | - | - | - | - |
| 1787697638 | 13.89° C | 81% | 1022.1 hPa | - | - | - | - |
| 1787697497 | 13.89° C | 81% | 1022.1 hPa | - | - | - | - |
| 1787697197 | 13.89° C | 85% | 1022.3 hPa | - | - | - | - |
| 1787697162 | 13.89° C | 83% | 1022.3 hPa | - | - | - | - |
| 1787696862 | 13.89° C | 82% | 1022.2 hPa | - | - | - | - |
| 1787696261 | 13.89° C | 82% | 1022.2 hPa | - | - | - | - |
| 1787695960 | 13.89° C | 82% | 1022.3 hPa | - | - | - | - |
| 1787695660 | 13.89° C | 82% | 1022.2 hPa | - | - | - | - |
| 1787694004 | 13.89° C | 81% | 1022.2 hPa | - | - | - | - |
| 1787693856 | 13.89° C | 81% | 1022.2 hPa | - | - | - | - |
| 1787693556 | 13.89° C | 81% | 1022.2 hPa | - | - | - | - |
| 1787693255 | 13.89° C | 80% | 1022.1 hPa | - | - | - | - |
| 1787693068 | 13.89° C | 81% | 1022.1 hPa | - | - | - | - |
| 1787692955 | 13.89° C | 81% | 1022.1 hPa | - | - | - | - |
| 1787692655 | 13.89° C | 81% | 1022.1 hPa | - | - | - | - |
| 1787692354 | 13.33° C | 82% | 1022.1 hPa | - | - | - | - |
| 1787692053 | 13.89° C | 83% | 1022.1 hPa | - | - | - | - |
| 1787691848 | 13.89° C | 82% | 1022.1 hPa | - | - | - | - |
| 1787691753 | 13.89° C | 82% | 1022.1 hPa | - | - | - | - |
| 1787681643 | 13.33° C | 84% | 1021.9 hPa | - | - | - | - |
* Rain since midnight (hover to see other rain measurements)
** Current wind speed in m/s (hover to see current wind gust speed)